SWR14L EDDF-LSGG

Flight info

Callsign SWR14L
Flight time 0h 50m
Altitude 29000
Route ANEKI2L/18 ANEKI Y163 PABLA/N0446F310 Y163 HERBI Y164 MOPAN DCT LUTIX DCT BENOT BENOT2T
Aircraft A359/H-SDE2E3GHIJ3J4J5LM1ORWXY/LB1D1

Departure

Time 2026-04-15 10:12
Airport Frankfurt Main Airport (EDDF)

Arrival

Time 2026-04-15 11:03
Airport Geneva International Airport (LSGG)
Time Latitude Longitude Altitude Speed Heading
2026-04-15 09:53 50.03740 8.54220 352 ft 0 kts 159°
2026-04-15 10:09 50.03679 8.54235 359 ft 11 kts 189°
2026-04-15 10:09 50.03619 8.54142 362 ft 14 kts 245°
2026-04-15 10:10 50.03579 8.53989 359 ft 16 kts 250°
2026-04-15 10:10 50.03536 8.53807 359 ft 20 kts 250°
2026-04-15 10:10 50.03485 8.53593 360 ft 22 kts 250°
2026-04-15 10:10 50.03428 8.53351 362 ft 25 kts 250°
2026-04-15 10:11 50.03364 8.53084 359 ft 27 kts 250°
2026-04-15 10:11 50.03295 8.52795 360 ft 30 kts 250°
2026-04-15 10:11 50.03191 8.52603 360 ft 19 kts 196°
2026-04-15 10:11 50.03032 8.52595 352 ft 39 kts 179°
2026-04-15 10:12 50.02483 8.52605 352 ft 116 kts 179°
2026-04-15 10:12 50.01456 8.52613 417 ft 171 kts 179°
2026-04-15 10:12 50.00299 8.52660 1325 ft 164 kts 176°
2026-04-15 10:12 49.99153 8.52741 1985 ft 171 kts 174°
2026-04-15 10:13 49.97891 8.52856 2273 ft 192 kts 174°
2026-04-15 10:13 49.96484 8.53012 2591 ft 213 kts 173°
2026-04-15 10:13 49.94963 8.53122 3135 ft 224 kts 176°
2026-04-15 10:13 49.93398 8.53192 3890 ft 226 kts 176°
2026-04-15 10:14 49.91823 8.53271 4667 ft 227 kts 176°
2026-04-15 10:14 49.90239 8.53362 5448 ft 228 kts 176°
2026-04-15 10:14 49.88667 8.53459 6204 ft 229 kts 176°
2026-04-15 10:14 49.87070 8.53561 6937 ft 231 kts 177°
2026-04-15 10:15 49.85448 8.53666 7578 ft 236 kts 177°
2026-04-15 10:15 49.83793 8.53775 8231 ft 239 kts 178°
2026-04-15 10:15 49.82115 8.53886 8908 ft 243 kts 178°
2026-04-15 10:15 49.80413 8.53999 9586 ft 247 kts 178°
2026-04-15 10:16 49.78687 8.54101 10236 ft 250 kts 180°
2026-04-15 10:16 49.76925 8.53997 10732 ft 259 kts 185°
2026-04-15 10:16 49.75065 8.53761 11008 ft 277 kts 186°
2026-04-15 10:16 49.73077 8.53488 11291 ft 295 kts 186°
2026-04-15 10:17 49.70976 8.53201 11551 ft 311 kts 186°
2026-04-15 10:17 49.68760 8.52903 11820 ft 327 kts 186°
2026-04-15 10:17 49.66456 8.52596 12218 ft 336 kts 186°
2026-04-15 10:17 49.64106 8.52286 12760 ft 341 kts 186°
2026-04-15 10:18 49.61723 8.51972 13316 ft 345 kts 186°
2026-04-15 10:18 49.59349 8.51659 13882 ft 349 kts 186°
2026-04-15 10:18 49.56920 8.51340 14412 ft 352 kts 186°
2026-04-15 10:18 49.54466 8.51017 14916 ft 355 kts 186°
2026-04-15 10:19 49.51989 8.50692 15421 ft 359 kts 185°
2026-04-15 10:19 49.49487 8.50364 15929 ft 362 kts 185°
2026-04-15 10:19 49.46964 8.50033 16430 ft 366 kts 185°
2026-04-15 10:19 49.44412 8.49699 16950 ft 369 kts 185°
2026-04-15 10:20 49.41842 8.49363 17422 ft 373 kts 185°
2026-04-15 10:20 49.39237 8.49023 17847 ft 378 kts 185°
2026-04-15 10:20 49.36608 8.48680 18378 ft 380 kts 185°
2026-04-15 10:20 49.33959 8.48335 18832 ft 383 kts 185°
2026-04-15 10:21 49.31298 8.47988 19254 ft 385 kts 185°
2026-04-15 10:21 49.28614 8.47644 19662 ft 388 kts 185°
2026-04-15 10:21 49.25916 8.47291 20080 ft 391 kts 185°
2026-04-15 10:21 49.23195 8.46934 20481 ft 394 kts 185°
2026-04-15 10:22 49.20455 8.46576 20891 ft 396 kts 185°
2026-04-15 10:22 49.17733 8.46222 21265 ft 399 kts 185°
2026-04-15 10:22 49.14954 8.45861 21662 ft 402 kts 185°
2026-04-15 10:22 49.12155 8.45499 22046 ft 405 kts 185°
2026-04-15 10:23 49.09330 8.45133 22431 ft 408 kts 185°
2026-04-15 10:23 49.06502 8.44617 22846 ft 410 kts 191°
2026-04-15 10:23 49.03697 8.43803 23268 ft 412 kts 192°
2026-04-15 10:23 49.00883 8.42892 23662 ft 414 kts 193°
2026-04-15 10:24 48.98060 8.41922 24002 ft 417 kts 193°
2026-04-15 10:24 48.95220 8.40922 24286 ft 420 kts 193°
2026-04-15 10:24 48.92359 8.39908 24596 ft 424 kts 194°
2026-04-15 10:24 48.89513 8.38903 24902 ft 427 kts 194°
2026-04-15 10:25 48.86607 8.37883 25214 ft 430 kts 194°
2026-04-15 10:25 48.83683 8.36865 25513 ft 433 kts 194°
2026-04-15 10:25 48.80738 8.35843 25830 ft 436 kts 194°
2026-04-15 10:25 48.77766 8.34814 26165 ft 439 kts 194°
2026-04-15 10:26 48.74783 8.33749 26471 ft 443 kts 194°
2026-04-15 10:26 48.71772 8.32648 26791 ft 446 kts 195°
2026-04-15 10:26 48.68746 8.31531 27153 ft 449 kts 195°
2026-04-15 10:26 48.65698 8.30408 27518 ft 452 kts 195°
2026-04-15 10:27 48.62624 8.29279 27874 ft 456 kts 195°
2026-04-15 10:27 48.59529 8.28148 28260 ft 459 kts 195°
2026-04-15 10:27 48.56404 8.27011 28613 ft 463 kts 195°
2026-04-15 10:27 48.53255 8.25868 28988 ft 467 kts 195°
2026-04-15 10:28 48.50128 8.24736 29380 ft 470 kts 195°
2026-04-15 10:28 48.46936 8.23580 29754 ft 474 kts 195°
2026-04-15 10:28 48.43716 8.22408 30145 ft 478 kts 195°
2026-04-15 10:28 48.40462 8.21218 30504 ft 482 kts 195°
2026-04-15 10:29 48.37191 8.20022 30839 ft 485 kts 195°
2026-04-15 10:29 48.33894 8.18819 31147 ft 488 kts 195°
2026-04-15 10:29 48.30661 8.17642 31228 ft 476 kts 195°
2026-04-15 10:29 48.27497 8.16496 31229 ft 460 kts 195°
2026-04-15 10:30 48.24500 8.15103 31228 ft 443 kts 205°
2026-04-15 10:30 48.18939 8.11311 31235 ft 437 kts 209°
2026-04-15 10:31 48.13476 8.07267 31229 ft 443 kts 210°
2026-04-15 10:31 48.10676 8.05168 31230 ft 458 kts 209°
2026-04-15 10:31 48.07776 8.02999 31235 ft 472 kts 209°
2026-04-15 10:31 48.04786 8.00778 31230 ft 487 kts 209°
2026-04-15 10:32 48.01707 7.98503 31227 ft 500 kts 209°
2026-04-15 10:32 47.95442 7.93911 31226 ft 502 kts 208°
2026-04-15 10:33 47.89167 7.89333 31221 ft 503 kts 208°
2026-04-15 10:33 47.82880 7.84750 31219 ft 503 kts 208°
2026-04-15 10:34 47.76629 7.80203 31226 ft 503 kts 208°
2026-04-15 10:34 47.70340 7.75640 31230 ft 504 kts 208°
2026-04-15 10:35 47.64029 7.71075 31234 ft 504 kts 208°
2026-04-15 10:35 47.57716 7.66515 31239 ft 504 kts 208°
2026-04-15 10:36 47.51406 7.61973 31236 ft 505 kts 208°
2026-04-15 10:36 47.45074 7.57424 31236 ft 506 kts 208°
2026-04-15 10:37 47.38736 7.52886 31230 ft 506 kts 208°
2026-04-15 10:37 47.32444 7.48393 31213 ft 506 kts 208°
2026-04-15 10:38 47.26117 7.43887 31212 ft 501 kts 208°
2026-04-15 10:38 47.23023 7.41693 31203 ft 485 kts 208°
2026-04-15 10:38 47.20041 7.39579 31207 ft 469 kts 208°
2026-04-15 10:38 47.17262 7.37106 31214 ft 466 kts 220°
2026-04-15 10:39 47.14900 7.33893 31216 ft 460 kts 233°
2026-04-15 10:39 47.11518 7.27875 31024 ft 459 kts 236°
2026-04-15 10:39 47.09525 7.24208 30375 ft 460 kts 236°
2026-04-15 10:40 47.07530 7.20533 29744 ft 459 kts 235°
2026-04-15 10:40 47.05543 7.16880 29217 ft 454 kts 235°
2026-04-15 10:40 47.03574 7.13272 28725 ft 450 kts 235°
2026-04-15 10:40 47.01628 7.09706 28230 ft 445 kts 234°
2026-04-15 10:41 46.99701 7.06180 27726 ft 441 kts 234°
2026-04-15 10:41 46.97815 7.02733 27239 ft 437 kts 234°
2026-04-15 10:41 46.95918 6.99272 26724 ft 433 kts 234°
2026-04-15 10:41 46.94038 6.95843 26244 ft 430 kts 234°
2026-04-15 10:42 46.92171 6.92446 25735 ft 427 kts 234°
2026-04-15 10:42 46.90211 6.89170 25229 ft 426 kts 229°
2026-04-15 10:42 46.88173 6.86042 24709 ft 424 kts 228°
2026-04-15 10:42 46.86131 6.82951 24209 ft 421 kts 227°
2026-04-15 10:43 46.84100 6.79880 23676 ft 420 kts 227°
2026-04-15 10:43 46.82078 6.76825 23093 ft 416 kts 227°
2026-04-15 10:43 46.80073 6.73795 22556 ft 413 kts 227°
2026-04-15 10:43 46.78089 6.70800 22030 ft 409 kts 227°
2026-04-15 10:44 46.76122 6.67832 21487 ft 405 kts 227°
2026-04-15 10:44 46.74172 6.64893 20968 ft 402 kts 227°
2026-04-15 10:44 46.72237 6.61980 20433 ft 399 kts 227°
2026-04-15 10:44 46.70314 6.59087 19904 ft 396 kts 227°
2026-04-15 10:45 46.68401 6.56212 19379 ft 393 kts 227°
2026-04-15 10:45 46.66499 6.53357 18827 ft 391 kts 226°
2026-04-15 10:45 46.64608 6.50522 18263 ft 389 kts 226°
2026-04-15 10:45 46.62732 6.47712 17674 ft 386 kts 226°
2026-04-15 10:46 46.60894 6.44962 17156 ft 382 kts 226°
2026-04-15 10:46 46.59051 6.42208 16624 ft 378 kts 226°
2026-04-15 10:46 46.57224 6.39480 16097 ft 374 kts 226°
2026-04-15 10:46 46.55417 6.36785 15571 ft 371 kts 226°
2026-04-15 10:47 46.53625 6.34113 15070 ft 367 kts 226°
2026-04-15 10:47 46.51861 6.31503 14801 ft 358 kts 226°
2026-04-15 10:47 46.50119 6.28929 14514 ft 356 kts 226°
2026-04-15 10:47 46.48386 6.26371 14211 ft 354 kts 226°
2026-04-15 10:48 46.46681 6.23857 13915 ft 353 kts 226°
2026-04-15 10:48 46.44962 6.21323 13606 ft 351 kts 226°
2026-04-15 10:48 46.43251 6.18803 13312 ft 349 kts 226°
2026-04-15 10:48 46.41552 6.16304 13020 ft 347 kts 226°
2026-04-15 10:49 46.39858 6.13815 12746 ft 346 kts 226°
2026-04-15 10:49 46.38170 6.11336 12460 ft 344 kts 226°
2026-04-15 10:49 46.36493 6.08875 12171 ft 342 kts 226°
2026-04-15 10:49 46.34824 6.06429 11891 ft 340 kts 226°
2026-04-15 10:50 46.33162 6.03995 11612 ft 339 kts 226°
2026-04-15 10:50 46.31509 6.01576 11337 ft 338 kts 225°
2026-04-15 10:50 46.29881 5.99198 11155 ft 325 kts 226°
2026-04-15 10:50 46.28344 5.96954 10918 ft 305 kts 225°
2026-04-15 10:51 46.26889 5.94833 10669 ft 293 kts 225°
2026-04-15 10:51 46.25455 5.92742 10419 ft 292 kts 226°
2026-04-15 10:51 46.24024 5.90657 10153 ft 292 kts 225°
2026-04-15 10:51 46.22602 5.88581 9809 ft 289 kts 225°
2026-04-15 10:52 46.21186 5.86520 9545 ft 288 kts 225°
2026-04-15 10:52 46.19789 5.84492 9311 ft 288 kts 225°
2026-04-15 10:52 46.18380 5.82447 9077 ft 287 kts 225°
2026-04-15 10:52 46.16973 5.80407 8825 ft 286 kts 225°
2026-04-15 10:53 46.15595 5.78410 8645 ft 275 kts 225°
2026-04-15 10:53 46.14269 5.76489 8506 ft 264 kts 225°
2026-04-15 10:53 46.12990 5.74638 8262 ft 257 kts 225°
2026-04-15 10:53 46.11706 5.72889 8014 ft 252 kts 218°
2026-04-15 10:54 46.10155 5.71817 7798 ft 248 kts 191°
2026-04-15 10:54 46.08457 5.71936 7546 ft 245 kts 161°
2026-04-15 10:54 46.07008 5.73194 7328 ft 244 kts 138°
2026-04-15 10:54 46.05795 5.74855 7201 ft 235 kts 134°
2026-04-15 10:55 46.04684 5.76463 7114 ft 224 kts 134°
2026-04-15 10:55 46.03707 5.78123 7002 ft 212 kts 120°
2026-04-15 10:55 46.03391 5.80106 6842 ft 200 kts 83°
2026-04-15 10:55 46.03977 5.81832 6714 ft 188 kts 51°
2026-04-15 10:56 46.04842 5.83179 6544 ft 180 kts 45°
2026-04-15 10:56 46.05721 5.84426 6310 ft 176 kts 45°
2026-04-15 10:56 46.06577 5.85669 6037 ft 173 kts 46°
2026-04-15 10:56 46.07405 5.86883 5757 ft 165 kts 45°
2026-04-15 10:57 46.08191 5.88030 5501 ft 156 kts 45°
2026-04-15 10:57 46.09626 5.90126 5117 ft 140 kts 44°
2026-04-15 10:57 46.10306 5.91119 4953 ft 139 kts 45°
2026-04-15 10:58 46.10986 5.92112 4761 ft 139 kts 44°
2026-04-15 10:58 46.11663 5.93102 4584 ft 138 kts 44°
2026-04-15 10:58 46.12337 5.94088 4385 ft 138 kts 44°
2026-04-15 10:58 46.13011 5.95070 4187 ft 138 kts 45°
2026-04-15 10:59 46.13675 5.96040 4014 ft 137 kts 45°
2026-04-15 10:59 46.14340 5.97025 3853 ft 137 kts 45°
2026-04-15 10:59 46.14999 5.98016 3674 ft 136 kts 45°
2026-04-15 10:59 46.15659 5.98990 3492 ft 135 kts 44°
2026-04-15 11:00 46.16323 5.99943 3274 ft 134 kts 44°
2026-04-15 11:00 46.16989 6.00886 3089 ft 134 kts 43°
2026-04-15 11:00 46.17650 6.01829 2931 ft 133 kts 44°
2026-04-15 11:00 46.18292 6.02791 2790 ft 133 kts 45°
2026-04-15 11:01 46.18929 6.03759 2629 ft 133 kts 45°
2026-04-15 11:01 46.19573 6.04711 2445 ft 133 kts 45°
2026-04-15 11:01 46.20222 6.05646 2231 ft 132 kts 44°
2026-04-15 11:01 46.20864 6.06575 2005 ft 129 kts 46°
2026-04-15 11:02 46.21494 6.07495 1795 ft 129 kts 47°
2026-04-15 11:02 46.22113 6.08410 1627 ft 130 kts 47°
2026-04-15 11:02 46.22751 6.09343 1442 ft 130 kts 47°
2026-04-15 11:02 46.23338 6.10212 1409 ft 96 kts 45°
2026-04-15 11:03 46.23650 6.10667 1382 ft 44 kts 45°
2026-04-15 11:03 46.23840 6.10950 1383 ft 15 kts 61°
2026-04-15 11:03 46.23829 6.11068 1381 ft 14 kts 130°
2026-04-15 11:03 46.23750 6.11093 1382 ft 13 kts 180°
2026-04-15 11:04 46.23673 6.11034 1380 ft 15 kts 227°
2026-04-15 11:04 46.23596 6.10918 1380 ft 17 kts 225°
2026-04-15 11:04 46.23510 6.10791 1381 ft 19 kts 225°
2026-04-15 11:04 46.23413 6.10716 1386 ft 13 kts 147°
2026-04-15 11:05 46.23353 6.10820 1383 ft 10 kts 97°
2026-04-15 11:05 46.23374 6.10874 1382 ft 6 kts 69°
2026-04-15 11:05 46.23360 6.10920 1384 ft 5 kts 132°
2026-04-15 11:05 46.23347 6.10937 1384 ft 0 kts 136°
2026-04-15 11:06 46.23333 6.10957 1385 ft 0 kts 136°